Location: Maccacari
(45.1333°N, 11.1333°E)
Time: 10:22:27
(UTC+00:00)

SR - Visible Passes

Search period start: 18 June 2021 00:00
Search period end: 28 June 2021 00:00
Orbit: 575 x 880 km, 66.7° (Epoch: 17 June)

Date Brightness Start Highest point End Pass type
(mag) Time Alt. Az. Time Alt. Az. Time Alt. Az.
18 Jun ? 00:17:24 10° NNW 00:22:35 46° NE 00:27:17 10° ESE visible
18 Jun ? 02:00:02 10° NW 02:04:22 27° WSW 02:07:36 14° SSW visible
18 Jun ? 23:27:50 10° NNW 23:32:25 27° NE 23:36:41 10° E visible
19 Jun ? 01:09:43 10° NW 01:14:51 54° WSW 01:17:45 22° S visible
19 Jun ? 22:38:25 10° N 22:42:04 18° NE 22:45:31 10° ENE visible
20 Jun ? 00:19:47 10° NNW 00:25:07 79° ENE 00:28:10 23° SE visible
20 Jun ? 02:03:42 10° WNW 02:06:20 14° WSW 02:07:29 13° WSW visible
20 Jun ? 21:49:20 10° N 21:51:32 12° NNE 21:53:39 10° NE visible
20 Jun ? 23:30:04 10° NNW 23:35:10 43° NE 23:38:45 16° ESE visible
21 Jun ? 01:12:35 10° NW 01:17:00 29° WSW 01:18:05 26° SW visible
21 Jun ? 22:40:30 10° NNW 22:44:59 26° NE 22:49:09 10° E visible
22 Jun ? 00:22:19 10° NW 00:27:28 57° WSW 00:28:49 42° S visible
22 Jun ? 21:51:08 10° N 21:54:37 17° NNE 21:57:54 10° ENE visible
22 Jun ? 23:32:25 10° NNW 23:37:43 74° NE 23:39:39 37° SE visible
23 Jun ? 01:16:08 10° WNW 01:18:59 15° WSW 01:19:00 15° WSW visible
23 Jun ? 21:02:08 10° N 21:04:03 12° NNE 21:05:55 10° NE visible
23 Jun ? 22:42:42 10° NNW 22:47:44 41° NE 22:50:34 21° ESE visible
24 Jun ? 00:25:10 10° NW 00:29:38 31° WSW 00:29:56 30° WSW visible
24 Jun ? 21:53:11 10° NNW 21:57:32 25° NE 22:01:33 10° E visible
24 Jun ? 23:34:57 10° NW 23:40:05 61° WSW 23:40:55 52° SSW visible
25 Jun ? 21:03:50 10° N 21:07:08 16° NNE 21:10:17 10° ENE visible
25 Jun ? 22:45:03 10° NNW 22:50:19 70° NE 22:51:59 40° SE visible
26 Jun ? 00:28:34 10° WNW 00:31:21 16° W 00:31:21 16° W visible
26 Jun ? 20:14:57 10° N 20:16:34 11° NNE 20:18:08 10° NE visible
26 Jun ? 21:55:22 10° NNW 22:00:18 38° NE 22:03:06 21° ESE visible
26 Jun ? 23:37:43 10° NW 23:42:16 33° WSW 23:42:28 32° WSW visible
27 Jun ? 21:05:51 10° NNW 21:10:05 23° NE 21:14:01 10° E visible
27 Jun ? 22:47:33 10° NW 22:52:42 66° WSW 22:53:37 53° S visible
